Total_Precipitation_Accumulation
2.07 1.85 3.05 3.35 2.95 2.57 2.41 2.36 2.34 2.35 2.37 2.35 2.17 1.93 1.74 1.65 1.52 1.38 1.23 1.19 1.25 1.22 1.18 1.17 1.22 1.18 1.11 1.10 1.09 1.16 1.24 1.32 1.38 1.38 1.43 1.56 1.52 1.52 1.81 2.20 2.41 2.76 2.37
1.68 1.79 2.95 3.23 2.80 2.33 2.17 2.23 2.39 2.36 2.31 2.17 2.09 1.96 1.83 1.63 1.47 1.36 1.20 1.14 1.12 1.09 1.02 1.11 1.25 1.23 1.17 1.23 1.27 1.31 1.34 1.34 1.42 1.51 1.71 1.78 1.63 1.62 1.72 2.12 2.27 2.62 2.40
1.61 1.71 2.42 3.05 2.72 2.34 2.18 2.26 2.44 2.32 2.29 2.12 2.07 1.94 1.79 1.54 1.45 1.40 1.27 1.19 1.19 1.08 0.99 1.07 1.26 1.22 1.22 1.26 1.31 1.42 1.42 1.48 1.56 1.69 2.14 2.81 2.12 1.79 1.84 2.01 2.13 2.03 2.23
1.46 1.54 2.05 3.01 2.66 2.48 2.38 2.43 2.40 2.32 2.37 2.19 2.05 1.89 1.72 1.57 1.59 1.58 1.59 1.58 1.43 1.21 1.11 1.11 1.32 1.23 1.14 1.24 1.39 1.40 1.40 1.56 1.70 1.76 2.13 2.75 2.58 1.98 2.01 2.14 2.22 2.01 2.08
1.39 1.53 2.34 3.05 2.70 2.52 2.49 2.49 2.36 2.41 2.45 2.28 2.04 1.81 1.62 1.66 1.91 1.92 1.79 1.68 1.47 1.25 1.14 1.13 1.21 1.23 1.16 1.15 1.27 1.30 1.36 1.51 1.69 1.60 1.97 2.65 2.98 2.52 2.07 2.08 2.16 2.06 2.09
1.59 1.62 2.36 3.06 2.86 2.62 2.53 2.45 2.37 2.42 2.54 2.47 2.16 1.86 1.70 1.73 1.81 1.81 1.72 1.61 1.39 1.24 1.12 1.19 1.24 1.21 1.19 1.14 1.18 1.25 1.31 1.43 1.35 1.51 2.03 2.48 2.86 2.49 2.00 1.95 2.13 2.16 2.19
1.55 1.62 2.07 2.78 2.74 2.55 2.44 2.41 2.53 2.57 2.55 2.54 2.31 2.00 1.88 1.83 1.77 1.80 1.70 1.59 1.33 1.21 1.14 1.25 1.27 1.22 1.13 1.15 1.16 1.15 1.27 1.15 1.04 1.42 1.89 2.36 2.48 2.40 2.15 2.14 2.32 2.29 2.40
1.56 1.52 1.79 2.40 2.63 2.54 2.53 2.45 2.53 2.61 2.58 2.44 2.14 1.94 1.83 1.85 1.85 1.84 1.76 1.66 1.42 1.35 1.28 1.22 1.19 1.17 1.15 1.17 1.19 1.19 1.21 0.95 0.81 1.13 1.58 2.24 2.59 2.50 2.24 2.18 2.36 2.43 2.57
1.75 1.73 1.84 2.13 2.38 2.75 2.82 2.66 2.66 2.70 2.60 2.38 2.02 1.92 1.83 1.78 1.68 1.68 1.68 1.58 1.45 1.42 1.30 1.20 1.13 1.08 1.17 1.20 1.19 1.21 1.15 0.92 0.87 1.15 1.19 1.90 2.43 2.46 2.23 2.20 2.30 2.42 2.60
1.82 1.78 1.70 1.84 1.99 2.29 2.51 2.75 2.84 2.76 2.64 2.46 2.09 1.94 1.86 1.75 1.63 1.58 1.47 1.47 1.43 1.44 1.45 1.34 1.25 1.20 1.22 1.26 1.24 1.18 1.10 0.88 0.88 0.97 1.26 1.69 2.47 2.54 2.28 2.29 2.31 2.35 2.45
1.68 1.59 1.50 1.57 1.72 1.94 2.20 2.43 2.71 2.66 2.59 2.40 2.05 1.96 1.91 1.68 1.45 1.40 1.33 1.61 1.54 1.54 1.55 1.53 1.52 1.43 1.30 1.23 1.24 1.10 0.86 0.83 1.03 1.16 1.41 1.99 2.70 2.76 2.53 2.41 2.41 2.34 2.29
1.65 1.49 1.34 1.38 1.51 1.66 1.80 2.30 2.38 2.07 1.94 1.79 1.91 1.86 1.79 1.73 1.54 1.16 1.30 1.64 1.78 1.76 1.58 1.52 1.59 1.34 1.01 0.87 0.92 0.84 0.70 0.82 1.01 1.14 1.44 2.33 2.88 2.90 2.55 2.38 2.53 2.52 2.34
1.44 1.35 1.25 1.26 1.24 1.25 1.41 1.74 1.98 2.00 1.93 1.74 1.65 1.61 1.67 1.60 1.39 1.18 1.26 1.34 1.33 1.30 1.18 1.19 1.11 0.89 0.81 0.86 0.84 0.71 0.66 0.77 0.92 1.08 1.51 2.43 3.00 3.01 2.62 2.42 2.45 2.45 2.35
1.25 1.22 1.15 1.07 1.04 1.01 1.09 1.16 1.29 1.54 1.63 1.59 1.37 1.23 1.30 1.41 1.36 1.18 1.18 1.19 1.18 1.16 1.22 1.21 1.14 1.02 0.98 0.95 0.88 0.87 0.88 0.92 0.98 1.09 1.51 2.27 3.08 3.21 3.08 2.97 2.77 2.64 2.49
1.18 1.17 1.08 0.94 0.94 0.95 1.03 1.08 1.02 1.25 1.41 1.45 1.39 1.19 1.13 1.17 1.22 1.17 1.05 1.10 1.06 1.05 1.07 1.11 1.08 1.12 1.19 1.15 1.07 1.07 1.10 1.08 1.01 1.01 1.29 1.90 2.86 3.58 3.81 3.71 3.19 2.88 2.71
1.05 1.11 1.04 0.98 1.02 0.98 0.93 0.98 0.99 1.05 1.17 1.18 1.28 1.23 1.17 1.11 1.11 1.14 1.12 1.15 1.13 1.08 1.04 1.01 0.99 1.14 1.18 1.21 1.17 1.11 1.08 0.98 0.99 1.13 1.35 1.55 1.84 2.52 3.49 3.79 3.54 3.26 3.07
0.96 0.93 0.88 0.88 0.95 0.94 0.94 0.95 0.96 1.09 1.15 1.14 1.16 1.11 1.18 1.11 1.09 1.13 1.13 1.15 1.14 1.13 1.10 1.11 1.13 1.21 1.24 1.32 1.35 1.18 1.10 1.05 1.01 1.10 1.24 1.40 1.30 1.44 2.25 3.15 3.52 3.31 3.20
0.84 0.83 0.83 0.73 0.83 0.95 1.04 1.08 1.16 1.24 1.26 1.28 1.18 1.09 1.08 1.04 1.04 1.14 1.15 1.17 1.23 1.16 1.15 1.24 1.28 1.37 1.40 1.46 1.47 1.27 1.10 1.20 1.12 1.10 1.24 1.28 1.26 1.24 1.50 1.92 2.36 2.70 3.12
0.83 0.84 0.87 0.83 0.87 0.98 1.04 1.18 1.28 1.37 1.43 1.52 1.43 1.39 1.33 1.20 1.20 1.31 1.36 1.36 1.37 1.38 1.33 1.24 1.27 1.40 1.55 1.55 1.37 1.29 1.21 1.25 1.24 1.19 1.35 1.33 1.29 1.30 1.37 1.33 1.42 1.73 2.37
0.90 0.90 0.94 1.01 1.04 1.16 1.32 1.53 1.75 1.86 2.00 2.10 2.01 1.89 1.71 1.49 1.43 1.60 1.65 1.53 1.55 1.67 1.74 1.56 1.61 1.53 1.49 1.58 1.41 1.36 1.37 1.32 1.28 1.33 1.36 1.43 1.54 1.38 1.36 1.31 1.25 1.11 1.45
0.90 0.90 0.89 0.94 1.04 1.15 1.36 1.68 2.19 2.46 2.55 2.43 2.36 2.26 2.03 1.80 1.77 1.97 2.00 1.98 1.98 1.99 1.96 1.89 2.04 1.96 1.67 1.59 1.83 1.83 1.65 1.47 1.38 1.34 1.38 1.60 1.69 1.59 1.61 1.53 1.42 1.27 1.16
0.76 0.79 0.93 0.97 1.02 1.12 1.39 1.70 2.08 2.52 2.58 2.53 2.41 2.31 2.20 2.06 2.01 2.04 2.27 2.39 2.36 2.55 2.57 2.34 2.46 2.49 2.08 1.82 2.14 2.48 2.19 1.96 1.51 1.39 1.50 1.55 1.64 1.73 1.77 1.60 1.44 1.34 1.31
0.66 0.63 0.76 0.91 1.10 1.38 1.68 1.97 2.16 2.46 2.56 2.56 2.44 2.37 2.38 2.32 2.20 2.25 2.35 2.51 2.51 2.60 2.81 2.92 2.83 2.91 2.70 2.26 2.13 2.50 2.44 2.26 2.03 1.64 1.54 1.60 1.74 1.80 1.84 1.81 1.60 1.33 1.31
0.57 0.55 0.64 0.80 1.09 1.48 1.83 2.06 2.31 2.67 2.76 2.63 2.56 2.47 2.45 2.46 2.45 2.55 2.56 2.62 2.63 2.64 2.76 2.92 2.91 3.08 3.20 2.79 2.41 2.17 2.02 2.02 2.20 2.01 1.72 1.65 1.78 1.78 1.78 1.81 1.82 1.64 1.45
0.60 0.62 0.68 0.87 1.15 1.49 1.73 2.00 2.33 2.54 2.65 2.72 2.62 2.57 2.55 2.57 2.58 2.63 2.70 2.83 2.81 2.77 2.71 2.92 3.01 3.12 3.08 3.03 2.89 2.70 2.54 2.29 1.94 2.08 2.08 1.87 1.75 1.63 1.68 1.82 1.97 1.90 1.70
0.65 0.74 0.85 1.04 1.22 1.49 1.72 1.99 2.16 2.34 2.48 2.55 2.59 2.54 2.50 2.54 2.64 2.52 2.44 2.62 2.69 2.71 2.66 2.81 2.95 3.09 3.08 3.12 3.05 2.76 2.78 2.69 2.32 2.27 2.11 1.93 1.94 1.74 1.65 1.72 1.78 1.77 1.74